[[{"header":{"parameterUnit":"m.s-1","parameterCategory":1,"la1":30.2991,"la2":30.254,"lo1":-89.0895,"lo2":-89.0444,"dy":0.0017,"dx":0.0017,"nx":28,"ny":28,"refTime":"2024-03-04T09:00:00:Z","depth":0,"parameterNumber":2,"parameterNumberName":"U-component_of_WINDS"},"data":[0,0,0,0,0,0,0,0,0,0,0,0,0,0,0,0,0,0,0,0,0,0,0,0,0,0,0,0,0,0,0,0,0,0,0,0,0,0,0,0,0,0,0,0,0,0,0,0,0,0,0,0,0,0,0,0,0,0,-4.1046,-4.1048,0,-4.1223,-4.1225,-4.1227,-4.1197,-4.1194,-4.1191,-4.1188,-4.1371,-4.1378,-4.1386,0,0,0,0,0,0,0,0,0,0,0,0,0,-4.0684,-4.0691,-4.1046,-4.1048,-4.1051,-4.1223,-4.1225,-4.1228,-4.1198,-4.1194,-4.119,-4.1187,-4.1368,-4.1377,-4.1387,0,0,0,0,0,0,0,0,0,0,0,0,0,-4.0849,-4.0693,-4.1046,-4.1056,-4.1059,-4.1222,-4.1225,-4.1228,-4.1199,-4.1194,-4.1189,-4.1185,-4.1365,-4.1376,-4.1388,-4.1552,0,0,-4.1423,-4.1428,0,0,0,0,0,0,0,0,-4.084,-4.0863,-4.1053,-4.1056,-4.1059,-4.1183,-4.1165,-4.1337,-4.12,-4.1146,-4.1188,-4.1183,-4.1312,-4.1328,-4.1371,-4.1561,-4.1568,-4.1424,-4.1431,-4.1436,-4.144,0,0,0,0,0,0,0,-4.0829,-4.0855,-4.1116,-4.1055,-4.106,-4.1053,-4.1071,-4.1197,-4.1253,-4.115,-4.1148,-4.117,-4.1313,-4.136,-4.1375,-4.1571,-4.1424,-4.1434,-4.1441,-4.1446,-4.1907,-4.1912,0,0,0,0,0,0,-4.0814,-4.0846,-4.1111,-4.1122,-4.0936,-4.1063,-4.1084,-4.1148,-4.1251,-4.1263,-4.1173,-4.1168,-4.1343,-4.1362,-4.1382,-4.1583,-4.1436,-4.1447,-4.1454,-4.1902,-4.1908,-4.1914,0,0,0,0,0,0,-4.0806,-4.0838,-4.1103,-4.0983,-4.1017,-4.1074,-4.1147,-4.1154,-4.1201,-4.1269,-4.1279,-4.1211,-4.134,-4.1365,-4.1511,-4.1589,-4.1452,-4.1463,-4.1896,-4.1904,-4.1911,-4.1986,0,0,0,0,0,0,-4.0796,-4.0835,-4.0898,-4.0985,-4.1023,-4.1229,-4.1152,-4.1161,-4.1221,-4.1215,-4.1307,-4.1318,-4.1338,-4.1493,-4.1522,-4.1602,-4.1472,-4.1889,-4.1899,-4.1909,-4.1977,-4.1995,-4.2011,0,0,0,0,0,-4.0783,-4.0911,-4.0901,-4.0933,-4.1102,-4.1233,-4.1255,-4.1276,-4.1227,-4.1291,-4.1335,-4.1315,-4.1575,-4.1508,-4.154,-4.1625,-4.1884,-4.1896,-4.1908,-4.1969,-4.1991,-4.2011,0,0,0,0,0,0,-4.0831,-4.0923,-4.0912,-4.1072,-4.1145,-4.1228,-4.1309,-4.1299,-4.1387,-4.1378,-4.14,-4.1421,-4.1569,-4.1611,-4.1535,-4.1791,-4.1723,-4.1742,-4.1758,-4.1781,-4.1798,-4.1785,-4.1482,0,0,0,0,0,-4.086,-4.0959,-4.1033,-4.1167,-4.1205,-4.1251,-4.1309,-4.1318,-4.1395,-4.1426,-4.148,-4.1556,-4.1655,-4.172,-4.1814,-4.1982,-4.2003,-4.2056,-4.2074,-4.2087,-4.2104,-4.2199,-4.2224,-4.1953,-4.1953,-4.1953,0,0,-4.0922,-4.0984,-4.1045,-4.1179,-4.1237,-4.1339,-4.1277,-4.1387,-4.1464,-4.1443,-4.1584,-4.1626,-4.1712,-4.187,-4.1942,-4.191,-4.2184,-4.2103,-4.2113,-4.2123,-4.2214,-4.2239,-4.2262,-4.1961,-4.196,-4.1958,0,0,-4.1086,-4.1142,-4.1262,-4.1321,-4.141,-4.144,-4.1468,-4.1553,-4.1581,-4.1723,-4.171,-4.1801,-4.1971,-4.2034,-4.2088,-4.2278,-4.2264,-4.2308,-4.24,-4.2491,-4.2513,-4.2532,-4.2602,-4.2627,-4.2324,-4.2325,-4.2325,0,-4.1152,-4.1305,-4.1324,-4.1437,-4.1497,-4.1483,-4.1604,-4.1661,-4.1776,-4.1819,-4.1781,-4.1995,-4.2051,-4.2225,-4.2272,-4.2315,-4.235,-4.2299,-4.2508,-4.2527,-4.2546,-4.2613,-4.2639,-4.233,-4.2329,-4.2329,-4.2328,0,-4.1382,-4.1489,-4.1575,-4.1687,-4.1757,-4.1874,-4.1911,-4.198,-4.1983,-4.2018,-4.2164,-4.2231,-4.2341,-4.2382,-4.2387,-4.2558,-4.2535,-4.2503,-4.2435,-4.2576,-4.264,-4.2666,-4.2337,-4.2335,-4.2334,-4.2332,0,0,-4.1582,-4.1705,-4.1736,-4.1788,-4.1885,-4.1969,-4.2085,-4.2193,-4.2252,-4.2332,-4.2432,-4.2577,-4.2548,-4.2609,-4.2621,-4.2701,-4.2851,-4.2659,-4.2661,-4.2694,-4.3047,-4.3072,-4.3101,-4.2841,-4.2846,-4.285,-4.304,0,-4.1758,-4.1964,-4.1985,-4.217,-4.2271,-4.2259,-4.2361,-4.2432,-4.2468,-4.2559,-4.2598,-4.2702,-4.2654,-4.2692,-4.2771,-4.2816,-4.2922,-4.2802,-4.2936,-4.2941,-4.2917,-4.3134,-4.3161,-4.3337,-4.3065,-4.3069,-4.3072,0,-4.199,-4.2078,-4.2273,-4.2359,-4.2402,-4.2493,-4.2595,-4.2681,-4.2763,-4.2783,-4.2853,-4.2854,-4.2976,-4.2903,-4.3072,-4.299,-4.3046,-4.3077,-4.3085,-4.3099,-4.3016,-4.3157,-4.3393,-4.3421,-4.3111,-4.3108,-4.3105,0,-4.2119,-4.2286,-4.2425,-4.247,-4.2573,-4.2638,-4.2684,-4.276,-4.2824,-4.2913,-4.2955,-4.3056,-4.3113,-4.3192,-4.3221,-4.3164,-4.339,-4.3318,-4.3412,-4.3412,-4.3462,-4.3459,-4.3713,-4.3495,-4.3494,-4.3494,-4.3493,0,-4.2314,-4.2434,-4.2485,-4.2571,-4.2706,-4.273,-4.2863,-4.2906,-4.2975,-4.307,-4.3065,-4.3155,-4.3187,-4.3282,-4.3306,-4.3444,-4.3469,-4.349,-4.3496,-4.3492,-4.349,-4.353,-4.352,-4.3501,-4.3499,-4.3498,-4.3497,0,-4.2481,-4.2519,-4.2671,-4.2757,-4.2781,-4.2877,-4.2951,-4.3035,-4.3069,-4.319,-4.3219,-4.3274,-4.3386,-4.3423,-4.3558,-4.3574,-4.3736,-4.373,-4.3709,-4.3711,-4.3803,-4.3795,-4.4094,-4.4135,-4.3888,-4.389,-4.3892,0,-4.2603,-4.2696,-4.2793,-4.2856,-4.2905,-4.3007,-4.3072,-4.31,-4.3168,-4.327,-4.3342,-4.3453,-4.3543,-4.3723,-4.3775,-4.3879,-4.3877,-4.3974,-4.3892,-4.3887,-4.3881,-4.3876,-4.3886,-4.399,-4.3993,-4.3995,-4.3996,0,-4.2818,-4.2833,-4.2927,-4.303,-4.3109,-4.3191,-4.327,-4.3322,-4.3361,-4.3439,-4.3554,-4.3624,-4.3763,-4.3874,-4.3981,-4.4029,-4.4021,-4.4022,-4.4049,-4.4047,-4.4033,-4.4044,-4.3753,-4.4015,-4.4013,-4.4012,-4.4011,-4.401,-4.2968,-4.3051,-4.3132,-4.3239,-4.3302,-4.3376,-4.346,-4.3506,-4.3602,-4.3717,-4.3727,-4.3852,-4.3933,-4.4076,-4.4129,-4.4228,-4.42,-4.424,-4.425,-4.426,-4.4269,-4.4016,-4.4247,-4.4247,-4.4246,-4.4246,-4.4245,0,-4.3184,-4.3236,-4.3334,-4.3446,-4.353,-4.3514,-4.3602,-4.3674,-4.3783,-4.386,-4.3949,-4.4083,-4.4191,-4.4253,-4.4361,-4.4429,-4.4428,-4.4456,-4.4453,-4.4464,-4.4286,-4.4252,-4.4456,-4.4456,-4.4455,-4.4455,-4.4455,-4.4455,-4.3306,-4.3446,-4.3472,-4.3644,-4.3695,-4.3818,-4.3869,-4.3939,-4.4,-4.4149,-4.424,-4.4279,-4.4351,-4.4465,-4.4564,-4.458,-4.4621,-4.4653,-4.4666,-4.4498,-4.4477,-4.4456,-4.4425,-4.4661,-4.4662,-4.4837,-4.4838,-4.484]},{"header":{"parameterUnit":"m.s-1","parameterCategory":1,"la1":30.2991,"la2":30.254,"lo1":-89.0895,"lo2":-89.0444,"dy":0.0017,"dx":0.0017,"nx":28,"ny":28,"refTime":"2024-03-04T09:00:00:Z","depth":0,"parameterNumber":3,"parameterNumberName":"V-component_of_WINDS"},"data":[0,0,0,0,0,0,0,0,0,0,0,0,0,0,0,0,0,0,0,0,0,0,0,0,0,0,0,0,0,0,0,0,0,0,0,0,0,0,0,0,0,0,0,0,0,0,0,0,0,0,0,0,0,0,0,0,0,0,-0.2851,-0.2851,0,-0.2891,-0.2892,-0.2892,-0.2877,-0.2876,-0.2875,-0.2874,-0.2917,-0.2919,-0.2921,0,0,0,0,0,0,0,0,0,0,0,0,0,-0.2761,-0.2763,-0.2851,-0.2851,-0.2852,-0.2891,-0.2892,-0.2892,-0.2877,-0.2876,-0.2875,-0.2874,-0.2917,-0.2919,-0.2922,0,0,0,0,0,0,0,0,0,0,0,0,0,-0.2801,-0.2763,-0.2851,-0.2849,-0.2849,-0.2891,-0.2892,-0.2893,-0.2877,-0.2876,-0.2875,-0.2873,-0.2916,-0.2919,-0.2922,-0.2969,0,0,-0.2931,-0.2932,0,0,0,0,0,0,0,0,-0.2799,-0.2804,-0.2849,-0.2849,-0.285,-0.2878,-0.2876,-0.2918,-0.2878,-0.2867,-0.2874,-0.2873,-0.2905,-0.2909,-0.292,-0.2971,-0.2972,-0.2931,-0.2933,-0.2934,-0.2935,0,0,0,0,0,0,0,-0.2796,-0.2802,-0.2867,-0.2849,-0.285,-0.2846,-0.2851,-0.2884,-0.2894,-0.2868,-0.2867,-0.2872,-0.2905,-0.2917,-0.2921,-0.2973,-0.2931,-0.2934,-0.2936,-0.2937,-0.3064,-0.3066,0,0,0,0,0,0,-0.2793,-0.28,-0.2866,-0.2868,-0.282,-0.2849,-0.2854,-0.287,-0.2893,-0.2895,-0.2873,-0.2871,-0.2913,-0.2917,-0.2922,-0.2979,-0.2934,-0.2937,-0.2939,-0.3063,-0.3065,-0.3066,0,0,0,0,0,0,-0.2791,-0.2799,-0.2864,-0.2834,-0.2842,-0.2852,-0.2871,-0.2872,-0.2883,-0.2897,-0.2899,-0.2883,-0.2912,-0.2918,-0.2957,-0.298,-0.2939,-0.2941,-0.3061,-0.3063,-0.3065,-0.3092,0,0,0,0,0,0,-0.2788,-0.2798,-0.2816,-0.2834,-0.2844,-0.2898,-0.2872,-0.2873,-0.2888,-0.2886,-0.2907,-0.2909,-0.2911,-0.2953,-0.296,-0.2983,-0.2944,-0.3059,-0.3062,-0.3065,-0.3089,-0.3095,-0.31,0,0,0,0,0,-0.2785,-0.2822,-0.2817,-0.2825,-0.2866,-0.2899,-0.2905,-0.2906,-0.289,-0.2908,-0.2917,-0.2908,-0.2976,-0.2957,-0.2965,-0.299,-0.3057,-0.3061,-0.3064,-0.3087,-0.3094,-0.31,0,0,0,0,0,0,-0.2806,-0.2824,-0.2819,-0.2863,-0.2879,-0.2897,-0.2919,-0.2913,-0.2935,-0.2932,-0.2933,-0.2938,-0.2978,-0.2988,-0.2966,-0.3036,-0.3015,-0.302,-0.3029,-0.3036,-0.3041,-0.3038,-0.2946,0,0,0,0,0,-0.2816,-0.2841,-0.2856,-0.2893,-0.2902,-0.2909,-0.2924,-0.2923,-0.2941,-0.2948,-0.2959,-0.2977,-0.3003,-0.3019,-0.3044,-0.309,-0.3095,-0.3111,-0.3116,-0.3121,-0.3126,-0.3152,-0.3159,-0.3078,-0.3078,-0.3078,0,0,-0.2836,-0.2849,-0.2865,-0.2897,-0.291,-0.2937,-0.2915,-0.2944,-0.2964,-0.2953,-0.299,-0.2999,-0.3019,-0.3062,-0.3082,-0.3071,-0.3149,-0.3125,-0.3129,-0.3131,-0.3156,-0.3164,-0.3171,-0.308,-0.308,-0.3079,0,0,-0.2887,-0.2899,-0.2932,-0.2945,-0.2965,-0.2969,-0.2977,-0.2995,-0.3001,-0.3038,-0.303,-0.3054,-0.3098,-0.3112,-0.3125,-0.3181,-0.3175,-0.3189,-0.3218,-0.3243,-0.3249,-0.3255,-0.3276,-0.3283,-0.3194,-0.3194,-0.3194,0,-0.291,-0.295,-0.2949,-0.2979,-0.2994,-0.2984,-0.3017,-0.303,-0.3057,-0.3067,-0.3055,-0.3109,-0.3122,-0.3169,-0.3182,-0.3193,-0.3202,-0.3187,-0.3248,-0.3254,-0.326,-0.3279,-0.3287,-0.3196,-0.3195,-0.3195,-0.3195,0,-0.2977,-0.3005,-0.3029,-0.3054,-0.3071,-0.3103,-0.3107,-0.3125,-0.3123,-0.3129,-0.3167,-0.3182,-0.3209,-0.322,-0.3218,-0.3266,-0.3259,-0.3248,-0.3226,-0.3269,-0.3288,-0.3295,-0.3198,-0.3198,-0.3197,-0.3197,0,0,-0.3043,-0.3068,-0.3077,-0.3089,-0.3109,-0.3131,-0.3162,-0.3188,-0.3203,-0.3221,-0.3248,-0.3285,-0.3274,-0.3289,-0.3289,-0.3311,-0.3355,-0.3296,-0.3297,-0.3307,-0.341,-0.3419,-0.3428,-0.335,-0.3351,-0.3353,-0.3408,0,-0.3096,-0.315,-0.3151,-0.32,-0.3226,-0.3217,-0.3244,-0.326,-0.3266,-0.3289,-0.3296,-0.3322,-0.3306,-0.3315,-0.3336,-0.3345,-0.3376,-0.3341,-0.3375,-0.3377,-0.3372,-0.3437,-0.3447,-0.3499,-0.3415,-0.3417,-0.3418,0,-0.3165,-0.3186,-0.3238,-0.3256,-0.3266,-0.3291,-0.3314,-0.3336,-0.3354,-0.3357,-0.3374,-0.337,-0.3402,-0.3379,-0.3423,-0.34,-0.3414,-0.342,-0.3422,-0.3426,-0.34,-0.3444,-0.3515,-0.3524,-0.3429,-0.3428,-0.3427,0,-0.3209,-0.325,-0.3286,-0.3297,-0.3318,-0.3335,-0.3344,-0.3361,-0.3376,-0.3397,-0.3408,-0.3432,-0.3446,-0.3465,-0.3468,-0.3451,-0.3513,-0.349,-0.3517,-0.3517,-0.3532,-0.3531,-0.3608,-0.3539,-0.3539,-0.3539,-0.3539,0,-0.3269,-0.3301,-0.3306,-0.3329,-0.3365,-0.3365,-0.3402,-0.341,-0.3424,-0.3449,-0.3442,-0.3465,-0.3468,-0.3492,-0.3495,-0.3531,-0.3538,-0.3541,-0.3542,-0.3543,-0.3542,-0.3552,-0.3549,-0.3541,-0.3541,-0.354,-0.354,0,-0.3324,-0.3329,-0.3368,-0.3384,-0.3389,-0.3415,-0.343,-0.3451,-0.3457,-0.3488,-0.3495,-0.3504,-0.3532,-0.3537,-0.357,-0.3572,-0.3616,-0.3612,-0.361,-0.361,-0.3637,-0.3635,-0.3723,-0.3735,-0.3659,-0.3659,-0.366,0,-0.3362,-0.3387,-0.3406,-0.3422,-0.3432,-0.3457,-0.3473,-0.3474,-0.3491,-0.3513,-0.3532,-0.3559,-0.3581,-0.3626,-0.3636,-0.3661,-0.3659,-0.3688,-0.3663,-0.3663,-0.366,-0.3659,-0.3662,-0.3694,-0.3694,-0.3695,-0.3696,0,-0.343,-0.3431,-0.3453,-0.3477,-0.3496,-0.3515,-0.3533,-0.3546,-0.3549,-0.3569,-0.3597,-0.3614,-0.3647,-0.3674,-0.3699,-0.371,-0.3704,-0.3703,-0.3711,-0.3713,-0.371,-0.3713,-0.3624,-0.3702,-0.3701,-0.3701,-0.37,-0.37,-0.3478,-0.35,-0.3516,-0.3542,-0.3555,-0.3572,-0.3594,-0.3601,-0.3625,-0.3652,-0.3651,-0.3682,-0.37,-0.3733,-0.3745,-0.377,-0.376,-0.3771,-0.3774,-0.3777,-0.378,-0.3706,-0.3774,-0.3774,-0.3774,-0.3774,-0.3773,0,-0.3546,-0.3556,-0.3579,-0.3604,-0.3625,-0.3616,-0.3635,-0.3653,-0.368,-0.3697,-0.3718,-0.3751,-0.3777,-0.3789,-0.3815,-0.3833,-0.3831,-0.384,-0.3839,-0.3841,-0.3787,-0.3778,-0.3841,-0.3841,-0.3841,-0.3841,-0.3841,-0.3841,-0.3583,-0.362,-0.3623,-0.3666,-0.3676,-0.3706,-0.3718,-0.3733,-0.3747,-0.3783,-0.3805,-0.3812,-0.3827,-0.3854,-0.3878,-0.3881,-0.3891,-0.3901,-0.3903,-0.3852,-0.3845,-0.3839,-0.383,-0.3904,-0.3904,-0.3956,-0.3956,-0.3957]}]]